Massena, NY

5:32 PM EDT on September 16, 2019 (GMT -0400)
Massena International-Richards

Weather History for KMSS - July, 2019

Change the Weather History Date:

Friday, July 12, 2019

  Actual Average Record
Temperature  
Mean Temperature 70 °F 69 °F  
Max Temperature 75 °F 80 °F 94 °F (1987)
Min Temperature 65 °F 58 °F 41 °F (1971)
Degree Days  
Heating Degree Days 0 1  
Month to date heating degree days 0 12  
Since 1 June heating degree days 97 108  
Since 1 July heating degree days 0 12  
Cooling Degree Days 5 5  
Month to date cooling degree days 92 57  
Year to date cooling degree days 151 146  
Since 1 June cooling degree days 150 132  
Growing Degree Days 20 (Base 50)    
Moisture  
Dew Point 64 °F    
Average Humidity 77    
Maximum Humidity 93    
Minimum Humidity 60    
Precipitation  
Precipitation 0.01 in 0.11 in 1.07 in (1950)
Month to date precipitation 0.92 1.35  
Year to date precipitation 15.41 16.80  
Sea Level Pressure  
Sea Level Pressure 29.74 in    
Wind  
Wind Speed 6 mph (WNW)    
Max Wind Speed 15 mph    
Max Gust Speed 19 mph    
Visibility 9 miles    
Events Rain    
T = Trace of Precipitation, MM = Missing Value Source: NWS Daily Summary

Daily Weather History Graph

Daily Weather History Graph

Search for Another Location

Airport or City:

Astronomy

Jul. 12, 2019 Rise Set
Actual Time 5:24 AM EDT 8:45 PM EDT
Civil Twilight 4:48 AM EDT 9:21 PM EDT
Nautical Twilight 4:00 AM EDT 10:08 PM EDT
Astronomical Twilight 3:01 AM EDT 11:07 PM EDT
Moon 4:57 PM EDT (7/12) 2:12 AM EDT (7/12)
Length of Visible Light 16h 33m
Length of Day
15h 20m
Waxing Gibbous, 82% of the Moon is Illuminated
Jul 12
Waxing Gibbous
Jul 16
Full
Jul 24
Last Quarter
Jul 31
New
Aug 7
First Quarter

Hourly Weather History & Observations

Time (EDT) Temp. Dew Point Humidity Pressure Visibility Wind Dir Wind Speed Gust Speed Precip Events Conditions
12:53 AM 66.0 °F 64.0 °F 93% 29.68 in 10.0 mi Calm Calm - N/A   Partly Cloudy
1:53 AM 68.0 °F 64.9 °F 90% 29.68 in 10.0 mi Calm Calm - N/A   Overcast
2:11 AM 66.9 °F 64.9 °F 93% 29.69 in 10.0 mi NE 3.5 mph - N/A   Overcast
2:21 AM 66.9 °F 64.9 °F 93% 29.69 in 10.0 mi Calm Calm - N/A   Overcast
2:33 AM 66.9 °F 64.9 °F 93% 29.69 in 10.0 mi Calm Calm - N/A   Mostly Cloudy
2:53 AM 66.9 °F 64.0 °F 90% 29.68 in 10.0 mi Calm Calm - N/A   Overcast
3:13 AM 66.9 °F 64.9 °F 93% 29.69 in 10.0 mi Calm Calm - N/A   Overcast
3:53 AM 68.0 °F 64.9 °F 90% 29.68 in 10.0 mi Calm Calm - N/A   Overcast
4:41 AM 69.1 °F 66.9 °F 93% 29.69 in 10.0 mi SW 4.6 mph - N/A   Overcast
4:53 AM 69.1 °F 66.9 °F 93% 29.69 in 9.0 mi WSW 4.6 mph - N/A   Overcast
5:30 AM 69.1 °F 66.0 °F 90% 29.70 in 6.0 mi WNW 5.8 mph - N/A   Overcast
5:53 AM 69.1 °F 66.0 °F 90% 29.70 in 9.0 mi West 6.9 mph - N/A   Overcast
6:12 AM 69.1 °F 66.0 °F 90% 29.70 in 10.0 mi West 5.8 mph - N/A   Overcast
6:53 AM 69.1 °F 66.0 °F 90% 29.72 in 9.0 mi West 6.9 mph - N/A   Overcast
7:04 AM 69.1 °F 66.0 °F 90% 29.73 in 7.0 mi West 5.8 mph - N/A   Overcast
7:11 AM 69.1 °F 66.0 °F 90% 29.73 in 9.0 mi WNW 4.6 mph - N/A   Overcast
7:24 AM 70.0 °F 66.0 °F 87% 29.73 in 10.0 mi West 5.8 mph - N/A   Overcast
7:49 AM 69.8 °F 66.2 °F 88% 29.73 in 10.0 mi WNW 4.6 mph - N/A   Overcast
7:53 AM 70.0 °F 66.9 °F 90% 29.73 in 10.0 mi NW 5.8 mph - N/A   Overcast
8:05 AM 70.0 °F 66.0 °F 87% 29.73 in 10.0 mi NW 6.9 mph - N/A   Overcast
8:53 AM 71.1 °F 66.0 °F 84% 29.74 in 10.0 mi Calm Calm - N/A   Overcast
9:53 AM 70.0 °F 66.0 °F 87% 29.74 in 7.0 mi NW 5.8 mph - 0.00 in Rain Light Rain
10:13 AM 70.0 °F 66.0 °F 87% 29.75 in 3.0 mi NW 9.2 mph - 0.00 in   Overcast
10:23 AM 69.1 °F 66.0 °F 90% 29.75 in 4.0 mi NW 4.6 mph - 0.00 in Rain Light Rain
10:53 AM 70.0 °F 64.9 °F 84% 29.75 in 10.0 mi NW 4.6 mph - 0.01 in   Overcast
11:53 AM 72.0 °F 64.0 °F 76% 29.77 in 10.0 mi NNW 9.2 mph - N/A   Overcast
12:53 PM 72.0 °F 64.0 °F 76% 29.78 in 10.0 mi NNW 9.2 mph - N/A   Overcast
1:53 PM 73.0 °F 62.1 °F 68% 29.79 in 10.0 mi WNW 10.4 mph - N/A   Overcast
2:53 PM 73.0 °F 62.1 °F 68% 29.80 in 10.0 mi WNW 12.7 mph - N/A   Overcast
3:53 PM 73.0 °F 62.1 °F 68% 29.79 in 10.0 mi WNW 8.1 mph - N/A   Overcast
4:33 PM 73.0 °F 61.0 °F 66% 29.79 in 10.0 mi WNW 10.4 mph - N/A   Overcast
4:53 PM 73.0 °F 61.0 °F 66% 29.79 in 10.0 mi West 10.4 mph - N/A   Overcast
5:53 PM 75.0 °F 60.1 °F 60% 29.79 in 10.0 mi West 9.2 mph - N/A   Clear
6:53 PM 73.9 °F 60.1 °F 62% 29.79 in 10.0 mi WSW 6.9 mph - N/A   Clear
7:53 PM 73.0 °F 60.1 °F 64% 29.80 in 10.0 mi WSW 4.6 mph - N/A   Clear
8:53 PM 66.9 °F 61.0 °F 81% 29.81 in 10.0 mi Calm Calm - N/A   Partly Cloudy
9:53 PM 69.1 °F 62.1 °F 78% 29.83 in 10.0 mi SW 4.6 mph - N/A   Overcast
10:53 PM 66.9 °F 62.1 °F 84% 29.83 in 10.0 mi SW 3.5 mph - N/A   Scattered Clouds
11:53 PM 64.9 °F 62.1 °F 90% 29.84 in 10.0 mi SSW 5.8 mph - N/A   Scattered Clouds